Location: Zagreb
(45.8000°N, 16.0000°E)
Time: 18:38:25
(UTC+02:00)

A-11 Canister half - Pass Details

Date: 10 August 2022
Orbit: 1524 x 1684 km, 47.3° (Epoch: 05 October)

Event Time Altitude Azimuth Distance (km) Brightness Sun altitude
Rises 09:00:13 0° 263° (W) 4,933 11.2 31.7°
Reaches altitude 10° 09:03:24 10° 264° (W) 3,948 10.7 32.2°
Maximum altitude 09:13:38 84° 354° (N) 1,688 9.8 33.9°
Drops below altitude 10° 09:23:42 10° 83° (E) 3,890 12.2 35.6°
Sets 09:26:49 0° 84° (E) 4,859 12.5 36.2°
